Regional Weather Roundup
Issued by NWS Cleveland, OH

Home | Current Version | Previous Version | Graphics & Text | Print | Product List | Glossary On
Versions: 1 2 3 4 5 6 7 8 9 10 11 12 13 14 15 16 17 18 19 20 21 22 23 24 25 26 27 28 29 30 31 32 33 34 35 36 37 38 39 40 41 42 43 44 45 46 47 48 49 50
000
ASUS41 KCLE 261512
RWRCLE
OHIO REGIONAL WEATHER ROUNDUP
NATIONAL WEATHER SERVICE WILMINGTON, OH
1100 AM EDT TUE JUL 26 2016

NOTE: "FAIR" INDICATES FEW OR NO CLOUDS BELOW 12,000 FEET WITH NO
SIGNIFICANT WEATHER AND/OR OBSTRUCTIONS TO VISIBILITY.

OHZ001>008-015>018-024>027-034-035-043-044-261600-
   NORTHWEST OHIO

CITY           SKY/WX    TMP DP  RH WIND       PRES   REMARKS
DEFIANCE       FAIR      80  64  58 VRB3      30.08R
FINDLAY        FAIR      81  63  54 E7        30.06S
TOLEDO EXPRESS FAIR      80  65  59 NE5       30.06S
TOLEDO EXEC    FAIR      81  61  50 NE8       30.07S
LIMA           FAIR      78  67  68 E7        30.07S
$$

OHZ009>014-019>023-028>033-038-089-261600-
   NORTHEAST OHIO

CITY           SKY/WX    TMP DP  RH WIND       PRES   REMARKS
CLE-HOPKINS    FAIR      81  60  48 NE7       30.08S
CLE-LAKEFRONT  FAIR      78  63  59 NE8       30.05S
CUY CO. ARPT   MOSUNNY   81  61  50 E8        30.07S
LORAIN-ELYRIA  FAIR      79  62  56 NE10      30.07S
ASHTABULA      FAIR      73  63  70 NW7       30.08S
AKRON-CANTON   PTSUNNY   79  64  60 NE7       30.07S
WOOSTER        PTSUNNY   79  65  62 NE6       30.08S
MANSFIELD      FAIR      81  64  56 NE7       30.08S
YOUNGSTOWN     PTSUNNY   78  61  55 N7        30.07S
$$

OHZ042-051>053-060>062-070>072-077>081-261600-
  SOUTHWEST OHIO

CITY           SKY/WX    TMP DP  RH WIND       PRES   REMARKS
CINC-COVINGTON CLOUDY    84  71  65 CALM      30.05S
CINC-LUNKEN    PTSUNNY   84  73  69 CALM      30.03F HX  90
HAMILTON       LGT RAIN  77  72  84 NW5       30.06R
DAYTON         PTSUNNY   82  67  60 VRB3      30.08R
WRIGHT-PAT AFB FAIR      83  69  62 VRB3      30.05S
DAYTON GENERAL FAIR      81  66  60 NE3       30.05S
WILMINGTON     FAIR      79  70  74 CALM      30.06R
$$

OHZ036-037-039>041-045>050-054>059-063>069-073>076-082>088-261600-
  CENTRAL AND SOUTHEAST OHIO

CITY           SKY/WX    TMP DP  RH WIND       PRES   REMARKS
COLUMBUS       FAIR      82  68  62 E3        30.05R
OSU AIRPORT    FAIR      84  68  58 E3        30.05R
BOLTON FIELD   SUNNY     81  70  69 CALM      30.06R
RICKENBACK AFB FAIR      80  68  67 E3        30.04R
NEWARK         FAIR      84  67  56 N3        30.05R
MARION         FAIR      82  64  54 E8        30.07R
LANCASTER      FAIR      81  70  69 CALM      30.05S
ZANESVILLE     FAIR      85  67  54 SE5       30.04F
NEW PHILLY     FAIR      86  63  45 VRB3      30.05F
$$




USA.gov is the U.S. government's official web portal to all federal, state and local government web resources and services.